Location: Newark
(46.7636°N, 1.8358°W)
Time: 18:45:05
(UTC+00:00)

Vanguard 1 Rocket - Pass Details

Date: 25 October 2019
Orbit: 651 x 4225 km, 34.3° (Epoch: 11 November)

Event Time Altitude Azimuth Distance (km) Brightness Sun altitude
Rises 11:57:08 0° 258° (WSW) 5,596 11.6 31.1°
Reaches altitude 10° 12:00:13 10° 254° (WSW) 4,967 11.5 31.1°
Maximum altitude 12:15:36 56° 182° (S) 3,901 12.0 30.9°
Drops below altitude 10° 12:39:57 10° 113° (ESE) 7,430 12.2 30.1°
Sets 12:45:57 0° 110° (ESE) 8,410 12.4 29.9°
